Printer-friendly version

IAU Minor Planet Center

Minor Planet Center

MPEC 2004-R73 : 2004 RN111

The following Minor Planet Electronic Circular may be linked-to from your own Web pages, but must not otherwise be redistributed electronically.


Read MPEC 2004-R72 Read MPEC 2004-R74


M.P.E.C. 2004-R73                                Issued 2004 Sept. 13, 17:50 UT

     The Minor Planet Electronic Circulars contain information on unusual
         minor planets and routine data on comets.  They are published
   on behalf of Commission 20 of the International Astronomical Union by the
          Minor Planet Center, Smithsonian Astrophysical Observatory,
                          Cambridge, MA 02138, U.S.A.

                  Supported in part by the Brinson Foundation
             Prepared using the Tamkin Foundation Computer Network

                              MPC@CFA.HARVARD.EDU
          URL http://cfa-www.harvard.edu/iau/mpc.html  ISSN 1523-6714

                                  2004 RN111

Observations:
     K04RB1N* C2004 09 12.17206 22 28 29.29 -14 29 06.0          18.5   ER073704
     K04RB1N  C2004 09 12.18323 22 28 32.04 -14 24 18.1          18.5   ER073704
     K04RB1N  C2004 09 12.19451 22 28 34.79 -14 19 28.6          18.9   ER073704
     K04RB1N  C2004 09 12.20568 22 28 37.51 -14 14 41.4          18.5   ER073704
     K04RB1N  C2004 09 12.21686 22 28 40.18 -14 09 54.6          18.6   ER073704
     K04RB1N  C2004 09 13.18562 22 33 21.13 -07 36 28.9          19.0 R ER073649
     K04RB1N  C2004 09 13.18654 22 33 21.39 -07 36 08.1          19.0 R ER073649
     K04RB1N  C2004 09 13.18745 22 33 21.50 -07 35 46.3          18.5 R ER073649
     K04RB1N  C2004 09 13.18837 22 33 21.72 -07 35 25.9          18.7 R ER073649
     K04RB1N  C2004 09 13.18929 22 33 21.81 -07 35 04.6          18.9 R ER073649
     K04RB1N  C2004 09 13.20354 22 33 24.77 -07 29 38.1          18.9 R ER073649
     K04RB1N  C2004 09 13.20508 22 33 25.09 -07 29 02.4          18.8 R ER073649
     K04RB1N  C2004 09 13.20600 22 33 25.26 -07 28 41.8          19.2 R ER073649
     K04RB1N  C2004 09 13.20754 22 33 25.58 -07 28 07.0          19.0 R ER073649
     K04RB1N  C2004 09 13.21486 22 33 27.31 -07 25 18.4          19.1 R ER073734
     K04RB1N  C2004 09 13.21697 22 33 27.74 -07 24 30.1          19.8 R ER073734
     K04RB1N  C2004 09 13.22579 22 33 29.50 -07 21 08.8          18.9 R ER073734
     K04RB1N  C2004 09 13.22790 22 33 29.94 -07 20 20.5          19.0 R ER073734
     K04RB1N  C2004 09 13.23000 22 33 30.36 -07 19 32.8          19.2 R ER073734

Observer details:
649 Powell Observatory, Louisburg.  Observer R. Trentman.  0.75-m Newtonian
    reflector + CCD.
704 Lincoln Laboratory ETS, New Mexico.  Observers M. Blythe, F. Shelly,
    M. Bezpalko, R. Huber, L. Manguso, D. Torres, R. Kracke, M. McCleary,
    H. Stange, A. Milner.  Measurers J. Stuart, R. Sayer, J. Evans, J. Kommers.
    1.0-m f/2.15 reflector + CCD.
734 Farpoint Observatory.  Observer G. Hug.  0.4-m f/6 Schmidt-Cassegrain
    + CCD.

Orbital elements:
2004 RN111
Epoch 2004 July 14.0 TT = JDT 2453200.5                 MPC
M 343.92206              (2000.0)            P               Q
n   0.45748026     Peri.  331.16869     +0.77951152     +0.62520677
a   1.6680964      Node   349.86010     -0.52462631     +0.61810577
e   0.3938399      Incl.   12.61461     -0.34224117     +0.47650997
P   2.15           H   25.2           G   0.15           U   8
Residuals in seconds of arc
040912 704  0.0   0.6-    040913 649  0.1-  0.5+    040913 734  0.1+  0.6+
040912 704  0.1-  0.2+    040913 649  0.4+  0.2-    040913 734  0.1+  0.6+
040912 704  0.1-  0.1-    040913 649  1.1-  0.0     040913 734  0.2-  0.2+
040912 704  0.2+  0.3+    040913 649  0.1-  0.3-    040913 734  0.1+  0.2+
040912 704  0.1+  0.1+    040913 649  0.0   0.1+    040913 734  0.0   0.1-
040913 649  0.0   0.1-    040913 649  0.2-  0.4-
040913 649  1.1+  0.4-    040913 649  0.1-  0.9-

Ephemeris:
2004 RN111               a,e,i = 1.67, 0.39, 13                  q = 1.0111
Date    TT    R. A. (2000) Decl.     Delta      r     Elong.  Phase     V
2004 09 12    22 27.46   -15 41.6    0.041    1.045   162.4    16.9    19.2
2004 09 13    22 32.46   -08 46.2    0.043    1.048   166.0    13.4    19.2
2004 09 14    22 36.76   -02 38.8    0.046    1.051   167.0    12.4    19.4
2004 09 15    22 40.49   +02 40.7    0.049    1.054   165.9    13.5    19.6
2004 09 16    22 43.78   +07 15.9    0.053    1.057   163.7    15.5    19.8
2004 09 17    22 46.69   +11 12.0    0.058    1.060   161.2    17.8    20.1
2004 09 18    22 49.31   +14 34.4    0.062    1.063   158.9    19.9    20.3
2004 09 19    22 51.67   +17 28.2    0.067    1.066   156.7    21.8    20.5
2004 09 20    22 53.82   +19 58.1    0.072    1.069   154.8    23.5    20.7
2004 09 21    22 55.79   +22 07.7    0.077    1.073   153.2    25.0    20.9
2004 09 22    22 57.61   +24 00.3    0.082    1.076   151.7    26.2    21.1
2004 09 23    22 59.31   +25 38.5    0.087    1.080   150.4    27.3    21.3
2004 09 24    23 00.89   +27 04.5    0.092    1.084   149.3    28.2    21.4
2004 09 25    23 02.38   +28 20.1    0.098    1.087   148.4    28.9    21.6
2004 09 26    23 03.80   +29 26.7    0.103    1.091   147.5    29.6    21.7
2004 09 27    23 05.14   +30 25.6    0.109    1.095   146.8    30.1    21.9
2004 09 28    23 06.42   +31 17.7    0.115    1.099   146.1    30.6    22.0
2004 09 29    23 07.65   +32 04.0    0.120    1.103   145.5    30.9    22.1
2004 09 30    23 08.83   +32 45.1    0.126    1.107   145.0    31.2    22.3
2004 10 01    23 09.98   +33 21.6    0.132    1.111   144.6    31.5    22.4
2004 10 02    23 11.10   +33 54.1    0.138    1.115   144.2    31.7    22.5

Timothy B. Spahr             (C) Copyright 2004 MPC           M.P.E.C. 2004-R73

Read MPEC 2004-R72 Read MPEC 2004-R74


Our Web policy. Index to the CBAT/MPC/ICQ pages.


Valid HTML 4.01!